Tracking 29892 objects as of 21-Nov-2024
HD Live streaming from Space Station
objects crossing your sky now

DELTA 1 DEB

Track DELTA 1 DEB now!
10-day predictions


NORAD ID: 37637
Int'l Code: 1978-026HY
Perigee: 861.7 km
Apogee: 970.2 km
Inclination: 98.9 °
Period: 103.2 minutes
Semi major axis: 7286 km
RCS: 0.0061 m2 (small)
Launch date: March 5, 1978
Source: United States (US)
Launch site: AIR FORCE WESTERN TEST RANGE (AFWTR)

Note: This is SATELLITE DEBRIS
Your satellite tracking list
Your tracking list is empty




NASA's NSSDC Master Catalog

Two Line Element Set (TLE):
1 37637U 78026HY  24324.71647077  .00001245  00000-0  92377-3 0  9996
2 37637  98.9107 276.6031 0074419 358.7661   1.3307 13.95678823114954
Source of the keplerian elements: AFSPC